Weather History for Marrakech, Morocco

Change the Weather History Date:

Saturday, October 20, 2012

  Actual Average Record
Temperature  
Mean Temperature 60 °F -  
Max Temperature 69 °F 74 °F 91 °F (2004)
Min Temperature 51 °F 52 °F 51 °F (2012)
Degree Days  
Heating Degree Days 5    
Growing Degree Days 10 (Base 50)    
Moisture  
Dew Point 50 °F    
Average Humidity 70    
Maximum Humidity 100    
Minimum Humidity 31    
Precipitation  
Precipitation 0.00 in 0.05 in - ()
Sea Level Pressure  
Sea Level Pressure 29.99 in    
Wind  
Wind Speed 2 mph ()    
Max Wind Speed 8 mph    
Max Gust Speed -    
Visibility 6.2 miles    
Events      
Averages and records for this station are not official NWS values.
T = Trace of Precipitation, MM = Missing Value Source: Averaged Metar Reports

Daily Weather History Graph

Daily Weather History Graph

Search for Another Location

Airport:

Trip Planner

Search our weather history database for the weather conditions in past years. The results will help you decide how hot, cold, wet, or windy it might be!

Date:

Astronomy

Oct. 20, 2012 Rise Set
Actual Time 6:39 AM WET 5:54 PM WET
Civil Twilight 6:14 AM WET 6:18 PM WET
Nautical Twilight 5:46 AM WET 6:47 PM WET
Astronomical Twilight 5:17 AM WET 7:15 PM WET
Moon 11:52 AM WET (10/20) 10:34 PM WET (10/20)
Length of Visible Light 12h 04m
Length of Day
11h 15m
Waxing Crescent, 32% of the Moon is Illuminated
Oct 20
Waxing Crescent
Oct 22
First Quarter
Oct 29
Full
Nov 7
Last Quarter
Nov 13
New

Hourly Weather History & Observations

Time (WET) Temp. Dew Point Humidity Pressure Visibility Wind Dir Wind Speed Gust Speed Precip Events Conditions
12:00 AM 57 °F 53 °F 81% 29.94 in 6 mi Calm Calm - -   Partly Cloudy
12:00 AM 57.2 °F 53.6 °F 88% 29.95 in 6.2 mi Calm Calm - N/A   Scattered Clouds
1:00 AM 57.2 °F 53.6 °F 88% 29.95 in 6.2 mi Calm Calm - N/A   Scattered Clouds
1:30 AM 57.2 °F 53.6 °F 88% 29.95 in 6.2 mi Calm Calm - N/A   Scattered Clouds
2:00 AM 57.2 °F 53.6 °F 88% 29.92 in 6.2 mi WSW 3.5 mph - N/A   Scattered Clouds
2:30 AM 55.4 °F 53.6 °F 94% 29.92 in 6.2 mi Calm Calm - N/A   Scattered Clouds
3:00 AM 55 °F 52 °F 88% 29.92 in 6 mi Calm Calm - -   Partly Cloudy
3:00 AM 55.4 °F 53.6 °F 94% 29.92 in 6.2 mi Calm Calm - N/A   Scattered Clouds
3:30 AM 53.6 °F 51.8 °F 94% 29.92 in 6.2 mi West 3.5 mph - N/A   Scattered Clouds
4:00 AM 53.6 °F 51.8 °F 94% 29.92 in 6.2 mi Calm Calm - N/A   Scattered Clouds
4:30 AM 53.6 °F 51.8 °F 94% 29.92 in 6.2 mi Calm Calm - N/A   Scattered Clouds
5:00 AM 53.6 °F 51.8 °F 94% 29.92 in 6.2 mi Calm Calm - N/A   Scattered Clouds
5:30 AM 53.6 °F 51.8 °F 94% 29.95 in 6.2 mi Calm Calm - N/A   Scattered Clouds
6:00 AM 55 °F 53 °F 91% 29.94 in 6 mi Calm Calm - -   Partly Cloudy
6:00 AM 55.4 °F 53.6 °F 94% 29.95 in 6.2 mi Calm Calm - N/A   Scattered Clouds
6:30 AM 51.8 °F 51.8 °F 100% 29.95 in 6.2 mi Calm Calm - N/A   Scattered Clouds
7:00 AM 51.8 °F 51.8 °F 100% 29.95 in 6.2 mi Calm Calm - N/A   Partly Cloudy
7:30 AM 55.4 °F 53.6 °F 94% 29.98 in 6.2 mi Calm Calm - N/A   Partly Cloudy
8:00 AM 57.2 °F 53.6 °F 88% 29.98 in 6.2 mi Calm Calm - N/A   Partly Cloudy
8:30 AM 59.0 °F 53.6 °F 82% 30.01 in 6.2 mi South 3.5 mph - N/A   Partly Cloudy
9:00 AM 60 °F 53 °F 72% 29.99 in 6 mi Calm Calm - -   Partly Cloudy
9:00 AM 60.8 °F 53.6 °F 77% 30.01 in 6.2 mi Calm Calm - N/A   Scattered Clouds
9:30 AM 60.8 °F 53.6 °F 77% 30.01 in 6.2 mi Calm Calm - N/A   Mostly Cloudy
10:00 AM 62.6 °F 51.8 °F 68% 30.01 in 6.2 mi Calm Calm - N/A   Mostly Cloudy
10:30 AM 62.6 °F 51.8 °F 68% 30.01 in 6.2 mi Calm Calm - N/A   Mostly Cloudy
11:00 AM 62.6 °F 51.8 °F 68% 30.01 in 6.2 mi Calm Calm - N/A   Mostly Cloudy
11:30 AM 66.2 °F 51.8 °F 60% 30.01 in 6.2 mi Variable 2.3 mph - N/A   Scattered Clouds
12:00 PM 65 °F 49 °F 45% 29.96 in 6 mi West 3.5 mph - -   Mostly Cloudy
12:00 PM 66.2 °F 50.0 °F 56% 30.01 in 6.2 mi Variable 3.5 mph - N/A   Scattered Clouds
12:30 PM 64.4 °F 48.2 °F 56% 30.01 in 6.2 mi Variable 2.3 mph - N/A   Scattered Clouds
1:00 PM 66.2 °F 48.2 °F 52% 29.98 in 6.2 mi Variable 2.3 mph - N/A   Scattered Clouds
1:30 PM 68.0 °F 50.0 °F 52% 29.98 in 6.2 mi NNW 5.8 mph - N/A   Scattered Clouds
2:00 PM 68.0 °F 50.0 °F 52% 29.98 in 6.2 mi WNW 8.1 mph - N/A   Scattered Clouds
2:30 PM 68.0 °F 48.2 °F 49% 29.98 in 6.2 mi West 4.6 mph - N/A   Scattered Clouds
3:00 PM 69 °F 45 °F 31% 29.95 in 6 mi WNW 6.9 mph - -   Mostly Cloudy
3:00 PM 68.0 °F 46.4 °F 46% 29.98 in 6.2 mi West 6.9 mph - N/A   Scattered Clouds
3:30 PM 69.8 °F 44.6 °F 40% 30.01 in 6.2 mi West 6.9 mph - N/A   Scattered Clouds
4:00 PM 69.8 °F 42.8 °F 38% 30.01 in 6.2 mi West 6.9 mph - N/A   Scattered Clouds
4:30 PM 69.8 °F 44.6 °F 40% 30.01 in 6.2 mi West 3.5 mph - N/A   Scattered Clouds
5:00 PM 68.0 °F 44.6 °F 43% 30.01 in 6.2 mi West 4.6 mph - N/A   Scattered Clouds
5:30 PM 68.0 °F 42.8 °F 40% 30.01 in 6.2 mi WSW 6.9 mph - N/A   Scattered Clouds
6:00 PM 66.2 °F 42.8 °F 43% 30.01 in 6.2 mi WSW 4.6 mph - N/A   Scattered Clouds
6:30 PM 64.4 °F 44.6 °F 49% 30.01 in 6.2 mi SW 4.6 mph - N/A   Scattered Clouds
7:00 PM 62.6 °F 48.2 °F 59% 30.01 in 6.2 mi SW 3.5 mph - N/A   Scattered Clouds
7:30 PM 62.6 °F 48.2 °F 59% 30.04 in 6.2 mi WSW 3.5 mph - N/A   Scattered Clouds
8:00 PM 60.8 °F 48.2 °F 63% 30.04 in 6.2 mi West 3.5 mph - N/A   Scattered Clouds
8:30 PM 60.8 °F 46.4 °F 59% 30.04 in 6.2 mi Calm Calm - N/A   Partly Cloudy
9:00 PM 60 °F 49 °F 59% 30.03 in 6 mi NW 2.3 mph - -   Scattered Clouds
9:00 PM 60.8 °F 48.2 °F 63% 30.04 in 6.2 mi Variable 1.2 mph - N/A   Partly Cloudy
9:30 PM 62.6 °F 50.0 °F 63% 30.04 in 6.2 mi North 4.6 mph - N/A   Partly Cloudy
10:00 PM 60.8 °F 50.0 °F 68% 30.06 in 6.2 mi NNE 3.5 mph - N/A   Partly Cloudy
10:30 PM 60.8 °F 50.0 °F 68% 30.06 in 6.2 mi Calm Calm - N/A   Partly Cloudy
11:00 PM 59.0 °F 51.8 °F 77% 30.06 in 6.2 mi ENE 4.6 mph - N/A   Partly Cloudy
11:30 PM 59.0 °F 51.8 °F 77% 30.04 in 6.2 mi NE 3.5 mph - N/A   Partly Cloudy